Regional Weather Roundup
Issued by NWS

Home | Current Version | Previous Version | Graphics & Text | Print | Product List | Glossary On
Versions: 1 2 3 4 5 6 7 8 9 10 11 12 13 14 15 16 17 18 19 20 21 22 23 24 25 26 27 28 29 30 31 32 33 34 35 36 37 38 39 40 41 42 43 44 45 46 47 48 49 50
000
ASUS43 KDMX 190607
RWRIA

WEATHER ROUNDUP FOR IOWA
NATIONAL WEATHER SERVICE DES MOINES IA
100 AM CDT SUN APR 19 2015

NOTE: "FAIR" INDICATES FEW OR NO CLOUDS BELOW 12,000 FEET WITH NO
SIGNIFICANT WEATHER AND/OR OBSTRUCTIONS TO VISIBILITY.

* - THESE STATIONS ARE NOT NWS STATIONS...THUS NOT UNDER NWS
QUALITY CONTROL.  THEY ALSO DO NOT REPORT WEATHER SUCH
AS PRECIPITATION OR FOG.

IAZ001>003-012>014-020>022-031>034-043>046-190700-
   NORTHWEST IOWA

CITY           SKY/WX    TMP DP  RH WIND       PRES   REMARKS
CARROLL *      CLOUDY    57  57 100 CALM      29.80F FOG
CHEROKEE *     CLOUDY    54  54 100 CALM      29.80F
DENISON *      CLOUDY    55  55 100 CALM      29.78F
LE MARS *      CLOUDY    57  57 100 S7        29.80S
ORANGE CITY *  CLOUDY   N/A N/A N/A S6        29.79S
SHELDON *      CLOUDY    54  54 100 SE8       29.78S
SIOUX CITY     CLOUDY    54  52  93 SE8       29.79F
6HR MIN TEMP:  53; 6HR MAX TEMP:  62;

SPENCER        LGT RAIN  55  54  96 S6        29.80F FOG
6HR MIN TEMP:  54; 6HR MAX TEMP:  59; 6HR PCP:  0.12;

STORM LAKE *   FOG       55  55 100 S5        29.81F VSB 1/2
$$

IAZ055>058-069>071-079>083-090>094-190700-
   SOUTHWEST IOWA

CITY           SKY/WX    TMP DP  RH WIND       PRES   REMARKS
ATLANTIC *     CLOUDY    55  55 100 CALM      29.81S FOG
AUDUBON *      RAIN      57  54  88 CALM      29.81F
CLARINDA *       N/A     55  55 100 CALM      29.83S
COUNCIL BLFS * CLOUDY    55  55 100 SE6       29.81S FOG
CRESTON *      FOG       57  57 100 S9        29.82S VSB 1/2
HARLAN  *      FOG       55  55 100 CALM      29.84S VSB 1/2
LAMONI         FOG       59  58  96 S6        29.82S VSB 3/4
6HR MIN TEMP:  59; 6HR MAX TEMP:  63;

RED OAK *      CLOUDY    57  57 100 S5        29.81S
SHENANDOAH *   FOG       55  55 100 CALM      29.81F VSB 1/4
$$

IAZ047>049-059>061-072>074-084-190700-
   CENTRAL IOWA

CITY           SKY/WX    TMP DP  RH WIND       PRES   REMARKS
AMES           MOCLDY    57  54  89 SE6       29.81F
6HR MIN TEMP:  57; 6HR MAX TEMP:  61; 6HR PCP:  0.15;

ANKENY *       CLOUDY    57  57 100 S5        29.82S
CHARITON *     CLOUDY    57  55  94 SE9       29.84R
DES MOINES     CLOUDY    59  56  89 SE7       29.82F
6HR MIN TEMP:  59; 6HR MAX TEMP:  63; 6HR PCP:  0.03;

GRINNELL*      CLOUDY    57  55  94 E12       29.82S
KNOXVILLE *    CLOUDY    57  55  94 SW3       29.82R
MARSHALLTOWN   CLOUDY    57  55  93 E10       29.81F
6HR MIN TEMP:  57; 6HR MAX TEMP:  61; 6HR PCP:  0.24;

PELLA *        HVY RAIN  58  58 100 CALM      29.84R
PERRY *        FOG       59  59 100 S3        29.81F VSB 1/4
$$

IAZ004>006-015-016-023>025-035-036-190700-
   NORTH CENTRAL IOWA

CITY           SKY/WX    TMP DP  RH WIND       PRES   REMARKS
ALGONA *       MOCLDY    55  55 100 SE10      29.81S FOG
CLARION *      CLOUDY    57  57 100 SE17      29.80F
ESTHERVILLE    LGT RAIN  54  54 100 SE14      29.80S FOG
6HR MIN TEMP:  54; 6HR MAX TEMP:  56; 6HR PCP:  0.16;

FORT DODGE *   CLOUDY    57  54  88 SE13      29.81F
MASON CITY     MOCLDY    56  50  81 SE12      29.84S
6HR MIN TEMP:  56; 6HR MAX TEMP:  58; 6HR PCP:  0.46;

FOREST CITY *  CLOUDY    55  54  94 SE14G21   29.82S
IOWA FALLS *   CLOUDY    57  55  94 E7        29.82F
$$

IAZ007>011-017>019-026>030-037>042-050>054-066-190700-
   NORTHEAST IOWA

CITY           SKY/WX    TMP DP  RH WIND       PRES   REMARKS
CEDAR RAPIDS     N/A     57  48  72 E14       29.83F
6HR MIN TEMP:  57; 6HR MAX TEMP:  67; 6HR PCP:  0.47;

CHARLES CITY * CLOUDY    55  50  82 E16G23    29.84F
CLINTON *        N/A     54  36  50 E12       29.91F
DECORAH *      CLOUDY    54  43  66 E16       29.86F
DUBUQUE          N/A     55  33  43 E16       29.89F
6HR MIN TEMP:  55; 6HR MAX TEMP:  69;

MONTICELLO *   CLEAR     57  39  51 E10G18    29.87F
OELWEIN *      CLOUDY    57  46  67 E15       29.86S
WATERLOO       LGT RAIN  56  51  84 E10       29.83F
6HR MIN TEMP:  56; 6HR MAX TEMP:  69; 6HR PCP:  0.29;

$$

IAZ064-065-067-068-078-190700-
   EAST CENTRAL IOWA

CITY           SKY/WX    TMP DP  RH WIND       PRES   REMARKS
DAVENPORT        N/A     55  36  48 E13       29.87F
6HR MIN TEMP:  55; 6HR MAX TEMP:  70;

IOWA CITY        N/A     59  50  72 E10       29.84F
6HR MIN TEMP:  59; 6HR MAX TEMP:  71; 6HR PCP:  0.46;

MT. PLEASANT * MOCLDY    59  57  93 E5        29.84S
MUSCATINE *    CLEAR     63  48  59 E13       29.85S
QUAD CITIES      N/A     56  37  49 E15       29.86F
6HR MIN TEMP:  56; 6HR MAX TEMP:  73;

$$

IAZ062-063-075>077-085>089-095>099-190700-
   SOUTHEAST IOWA

CITY           SKY/WX    TMP DP  RH WIND       PRES   REMARKS
BURLINGTON     MOCLDY    63  53  70 SE5       29.84S
6HR MIN TEMP:  63; 6HR MAX TEMP:  75;

FAIRFIELD *    CLOUDY    61  54  77 SE8       29.84R
FORT MADISON * RAIN      63  57  82 S14G21    29.87R
KEOKUK *       LGT RAIN  61  57  88 W6G16     29.84F
OSKALOOSA *    CLOUDY    58  55  91 SW6       29.85R
CENTERVILLE *  PTCLDY    57  57 100 SE7       29.85S
OTTUMWA        LGT RAIN  58  57  97 S5        29.83R
6HR MIN TEMP:  56; 6HR MAX TEMP:  60; 6HR PCP:  0.03;

WASHINGTON *   CLEAR     59  59 100 E6        29.83F
$$

ABBREVIATIONS USED IN REMARKS
   TC - TEMPERATURES IN CELSIUS
  WCI - WIND CHILL INDEX
   HX - HEAT INDEX
  VSB - VISIBILITY
$$



USA.gov is the U.S. government's official web portal to all federal, state and local government web resources and services.